Date String (YYYY-MM-DD hh:mm:ss) UTC,Instrument flags,absolute air pressure of the measurement (hPa),sample flow rate (lpm),inlet stack bypass flow (lpm),air temperature of the measurement (°C),ambient temperature measured by the external sensor (°C),aerosol sample conditioner tube jacket temperature (°C),OPC LED temperature (°C),internal box temperature (°C),relative humidity of the measurement (%),span deviation,mass concentration of particles derived from Lorenz-Mie calculation of OPC scattering (μg/m³),mass concentration of particles derived from Lorenz-Mie calculation of OPC scattering (μg/m³),mass concentration of particles derived from Lorenz-Mie calculation of OPC scattering (μg/m³)
DateTimeUTC,F1_M11,P_M11,Q1_M11,Q2_M11,T1_M11,T2_M11,T3_M11,T4_M11,T5_M11,U1_M11,ZSPAN_M11,X0_M11,X2_M11,X1_M11
2023-08-30 07:00:00,SystemResetWarning,0835.0,5.01,000.00,028.3,026.9,000.0,036.8,029.9,28.3,0001.0,0010.42,0005.71,0005.20
2023-08-30 07:01:00,SystemResetWarning,0835.3,5.00,000.00,028.3,027.0,000.0,036.8,030.0,28.3,0000.8,0010.57,0005.76,0005.22
2023-08-30 07:02:00,SystemResetWarning,0835.4,5.00,000.00,028.3,027.1,000.0,036.8,030.0,27.6,0000.7,0010.55,0005.77,0005.22
2023-08-30 07:03:00,SystemResetWarning,0835.4,5.00,000.00,028.3,027.2,000.0,036.8,030.0,27.2,0000.7,0010.53,0005.78,0005.23
2023-08-30 07:04:00,SystemResetWarning,0835.3,5.00,000.00,028.4,027.2,000.0,036.9,030.0,27.1,0000.8,0010.47,0005.75,0005.23
2023-08-30 07:05:00,SystemResetWarning,0835.4,5.00,000.00,028.4,027.3,000.0,036.9,030.1,27.1,0001.2,0010.61,0005.71,0005.22
2023-08-30 07:06:00,SystemResetWarning,0835.4,5.00,000.00,028.4,027.3,000.0,036.9,030.1,27.1,0001.0,0010.62,0005.70,0005.23
2023-08-30 07:07:00,SystemResetWarning,0835.3,5.00,000.00,028.5,027.4,000.0,036.9,030.1,27.2,0001.2,0010.93,0005.72,0005.24
2023-08-30 07:08:00,SystemResetWarning,0835.4,5.00,000.00,028.5,027.4,000.0,037.0,030.2,27.4,0001.6,0011.20,0005.69,0005.24
2023-08-30 07:09:00,SystemResetWarning,0835.4,4.99,000.00,028.5,026.5,000.0,036.9,030.1,27.1,0001.6,0010.77,0005.71,0005.23
2023-08-30 07:10:00,SystemResetWarning,0834.9,5.00,000.00,028.4,024.7,000.0,036.8,029.8,27.0,0001.9,0010.67,0005.73,0005.23
2023-08-30 07:11:00,SystemResetWarning,0834.8,5.01,000.00,028.3,024.2,000.0,036.7,029.6,27.0,0001.6,0010.74,0005.74,0005.22
2023-08-30 07:12:00,SystemResetWarning,0834.8,5.01,000.00,028.2,024.4,000.0,036.7,029.4,26.9,0001.8,0010.76,0005.72,0005.22
2023-08-30 07:13:00,SystemResetWarning,0834.7,4.99,000.00,028.2,024.8,000.0,036.8,029.5,27.2,0001.4,0010.76,0005.72,0005.21
2023-08-30 07:14:00,SystemResetWarning,0834.7,5.00,000.00,028.1,025.2,000.0,036.8,029.5,27.1,0001.4,0010.73,0005.70,0005.20
2023-08-30 07:15:00,SystemResetWarning,0834.7,5.00,000.00,028.1,025.6,000.0,036.8,029.6,27.1,0001.6,0010.89,0005.71,0005.20
2023-08-30 07:16:00,SystemResetWarning,0834.7,5.01,000.00,028.1,025.9,000.0,036.8,029.7,27.1,0001.5,0011.09,0005.72,0005.20
2023-08-30 07:17:00,SystemResetWarning,0834.7,5.00,000.00,028.2,026.2,000.0,036.8,029.7,27.0,0001.6,0011.36,0005.72,0005.20
2023-08-30 07:18:00,SystemResetWarning,0834.7,4.99,000.00,028.2,026.4,000.0,036.8,029.8,27.0,0001.9,0011.36,0005.71,0005.20
2023-08-30 07:19:00,SystemResetWarning,0834.7,5.00,000.00,028.2,026.6,000.0,036.8,029.8,27.1,0002.0,0010.59,0005.71,0005.18
2023-08-30 07:20:00,SystemResetWarning,0834.8,5.01,000.00,028.2,026.7,000.0,036.8,029.9,27.1,0001.9,0011.34,0005.73,0005.19
2023-08-30 07:21:00,SystemResetWarning,0834.7,5.00,000.00,028.2,026.8,000.0,036.8,029.9,27.0,0001.4,0011.12,0005.72,0005.20
2023-08-30 07:22:00,SystemResetWarning,0834.8,5.00,000.00,028.3,027.0,000.0,036.8,030.0,26.9,0001.4,0010.71,0005.72,0005.22
2023-08-30 07:23:00,SystemResetWarning,0834.7,5.00,000.00,028.3,027.0,000.0,036.8,030.0,26.9,0001.7,0010.91,0005.74,0005.23
2023-08-30 07:24:00,SystemResetWarning,0834.8,4.99,000.00,028.3,027.1,000.0,036.9,030.0,27.0,0002.1,0010.94,0005.74,0005.24
2023-08-30 07:25:00,SystemResetWarning,0834.7,5.00,000.00,028.4,027.2,000.0,036.9,030.0,26.8,0002.3,0010.88,0005.74,0005.26
2023-08-30 07:26:00,SystemResetWarning,0834.7,5.00,000.00,028.4,027.3,000.0,036.9,030.1,26.7,0001.9,0010.90,0005.76,0005.26
2023-08-30 07:27:00,SystemResetWarning,0834.7,5.00,000.00,028.4,027.3,000.0,036.9,030.1,26.6,0001.8,0010.62,0005.77,0005.28
2023-08-30 07:28:00,SystemResetWarning,0835.0,4.99,000.00,028.5,027.4,000.0,036.9,030.1,26.6,0001.8,0010.78,0005.79,0005.28
2023-08-30 07:29:00,SystemResetWarning,0835.0,5.00,000.00,028.5,027.4,000.0,037.0,030.2,26.6,0001.4,0010.61,0005.77,0005.27
2023-08-30 07:30:00,SystemResetWarning,0835.1,5.00,000.00,028.5,027.4,000.0,037.0,030.2,26.5,0001.6,0010.70,0005.81,0005.31
2023-08-30 07:31:00,SystemResetWarning,0835.3,5.00,000.00,028.5,027.5,000.0,037.0,030.2,26.7,0001.8,0009.86,0005.77,0005.31
2023-08-30 07:32:00,SystemResetWarning,0835.1,5.00,000.00,028.6,027.2,000.0,037.0,030.2,26.5,0001.9,0009.90,0005.80,0005.31
2023-08-30 07:33:00,SystemResetWarning,0834.7,5.00,000.00,028.5,025.4,000.0,036.9,030.0,26.5,0001.9,0010.19,0005.80,0005.31
2023-08-30 07:34:00,SystemResetWarning,0834.9,5.00,000.00,028.4,024.3,000.0,036.8,029.7,26.6,0001.6,0010.80,0005.77,0005.30
2023-08-30 07:35:00,SystemResetWarning,0835.0,5.02,000.00,028.3,024.3,000.0,036.8,029.4,26.6,0001.6,0011.12,0005.75,0005.29
2023-08-30 07:36:00,SystemResetWarning,0835.1,5.00,000.00,028.2,024.6,000.0,036.8,029.4,26.7,0001.4,0011.19,0005.75,0005.28
2023-08-30 07:37:00,SystemResetWarning,0835.1,5.00,000.00,028.2,025.0,000.0,036.8,029.5,26.8,0001.7,0011.20,0005.77,0005.28
2023-08-30 07:38:00,SystemResetWarning,0835.1,5.01,000.00,028.2,025.4,000.0,036.8,029.6,26.8,0001.9,0011.06,0005.78,0005.29
2023-08-30 07:39:00,SystemResetWarning,0835.1,5.00,000.00,028.2,025.8,000.0,036.8,029.7,26.9,0002.2,0010.67,0005.77,0005.29
2023-08-30 07:40:00,SystemResetWarning,0835.1,5.00,000.00,028.2,026.1,000.0,036.8,029.7,27.2,0002.6,0010.68,0005.78,0005.30
2023-08-30 07:41:00,SystemResetWarning,0835.1,5.00,000.00,028.2,026.3,000.0,036.8,029.8,27.0,0002.2,0010.65,0005.78,0005.30
2023-08-30 07:42:00,SystemResetWarning,0835.1,5.00,000.00,028.2,026.5,000.0,036.8,029.8,26.9,0002.4,0010.67,0005.80,0005.32
2023-08-30 07:43:00,SystemResetWarning,0835.1,5.00,000.00,028.2,026.7,000.0,036.8,029.9,26.9,0002.4,0010.61,0005.81,0005.31
2023-08-30 07:44:00,SystemResetWarning,0835.1,4.99,000.00,028.3,026.8,000.0,036.8,029.9,27.0,0002.4,0010.42,0005.82,0005.31
2023-08-30 07:45:00,SystemResetWarning,0835.0,5.00,000.00,028.3,026.9,000.0,036.9,030.0,26.9,0002.6,0009.46,0005.84,0005.33
2023-08-30 07:46:00,SystemResetWarning,0835.0,5.00,000.00,028.3,027.0,000.0,036.9,030.0,26.7,0002.3,0009.55,0005.87,0005.34
2023-08-30 07:47:00,SystemResetWarning,0835.1,5.01,000.00,028.4,027.1,000.0,036.9,030.0,26.7,0001.8,0009.83,0005.85,0005.36
2023-08-30 07:48:00,SystemResetWarning,0835.0,5.01,000.00,028.4,027.2,000.0,036.9,030.0,26.7,0001.4,0010.42,0005.85,0005.36
2023-08-30 07:49:00,SystemResetWarning,0835.1,5.00,000.00,028.4,027.2,000.0,036.9,030.1,27.1,0001.4,0010.72,0005.85,0005.35
2023-08-30 07:50:00,SystemResetWarning,0834.8,5.01,000.00,028.4,027.3,000.0,036.9,030.1,27.2,0001.3,0011.08,0005.87,0005.36
2023-08-30 07:51:00,SystemResetWarning,0834.5,5.00,000.00,028.5,027.3,000.0,037.0,030.1,27.1,0001.3,0011.20,0005.90,0005.35
2023-08-30 07:52:00,SystemResetWarning,0834.5,5.00,000.00,028.5,027.4,000.0,037.0,030.1,26.9,0001.3,0011.64,0005.90,0005.34
2023-08-30 07:53:00,SystemResetWarning,0834.5,5.00,000.00,028.5,027.4,000.0,037.0,030.2,26.7,0000.9,0011.83,0005.89,0005.32
2023-08-30 07:54:00,SystemResetWarning,0834.5,5.00,000.00,028.5,027.4,000.0,037.0,030.2,26.5,0000.8,0011.90,0005.90,0005.32
2023-08-30 07:55:00,SystemResetWarning,0834.5,5.00,000.00,028.6,027.5,000.0,037.1,030.2,26.4,0000.9,0011.83,0005.87,0005.32
2023-08-30 07:56:00,SystemResetWarning,0834.5,5.00,000.00,028.6,027.5,000.0,037.1,030.2,26.3,0000.8,0011.82,0005.87,0005.30
2023-08-30 07:57:00,SystemResetWarning,0834.5,4.98,000.00,028.6,026.5,000.0,037.0,030.1,26.2,0000.7,0011.47,0005.89,0005.29
2023-08-30 07:58:00,SystemResetWarning,0834.5,5.00,000.00,028.5,024.8,000.0,036.9,029.8,26.3,0001.4,0011.51,0005.92,0005.28
2023-08-30 07:59:00,SystemResetWarning,0834.4,5.01,000.00,028.4,024.2,000.0,036.8,029.6,26.5,0001.8,0011.00,0005.91,0005.27
